Vorticity
11 15 17 14 11 10 9 8 7 6 6 6 7 8 8 8 8 8 6 4 2 -1 -3 -2 -1 -2 -2 -0 3 5 6 6 6 6 5 5 5 5 5 5 4 5 5 6 7 7 7 7 7 8 9 10 11 11 10 10 10 9 9 9 9 8 8 8 8 8 8 7 7 7 7 7 8 8 8 9 9 10 10 10 11 11 11 11 10
14 16 13 9 7 7 7 7 6 7 7 7 8 8 7 5 5 6 6 5 4 3 2 2 1 -1 -1 1 4 5 6 7 6 5 5 4 5 5 5 5 6 6 6 7 7 8 9 10 11 11 12 12 11 10 9 8 8 8 8 9 8 9 8 8 9 9 9 8 7 7 6 7 9 8 8 9 9 10 10 10 11 11 11 12 11
13 11 8 7 8 7 7 8 7 8 8 8 8 7 5 3 3 5 6 7 7 6 5 3 1 1 3 4 5 6 6 6 6 5 5 4 4 4 4 5 5 5 6 8 9 10 11 11 11 11 10 10 9 9 9 8 9 9 8 9 8 9 9 8 8 8 9 9 9 9 7 6 8 10 10 8 8 9 9 10 10 11 11 12 11
11 8 7 8 9 8 8 9 9 9 8 7 6 4 3 2 4 5 6 7 6 5 4 3 3 5 6 7 7 7 6 5 6 6 6 6 5 4 4 4 5 7 9 10 11 10 10 10 9 9 8 8 8 8 8 8 8 8 8 8 8 8 8 7 7 7 8 8 9 9 8 7 6 8 10 10 9 9 9 10 10 10 11 12 12
8 7 7 8 9 9 8 8 7 7 5 5 4 3 4 4 6 6 5 5 4 4 5 6 7 7 8 7 7 7 7 8 8 7 8 8 8 8 8 9 10 11 11 10 9 8 8 8 8 8 7 7 7 7 7 8 7 7 7 8 8 8 7 7 6 6 6 6 6 6 6 7 6 5 6 8 9 9 9 10 10 11 10 11 11
6 5 6 7 8 8 6 5 5 5 5 6 6 7 8 7 6 5 4 4 5 7 9 9 8 7 7 7 7 8 8 8 7 6 6 7 9 11 11 11 11 10 9 8 9 9 9 9 8 8 8 8 8 8 8 9 8 8 8 8 8 8 8 8 8 8 8 7 6 6 5 5 5 5 4 5 7 7 8 9 10 11 10 10 11
6 5 5 5 5 5 5 5 6 6 7 7 8 8 7 6 5 5 6 8 9 9 9 8 8 8 8 8 8 8 7 6 6 6 7 8 9 9 9 9 8 8 8 8 8 9 8 9 9 9 9 9 9 10 9 9 9 8 9 8 8 8 9 9 9 9 10 11 11 10 9 8 7 6 5 4 5 6 9 10 10 10 10 11 11
6 5 5 4 3 4 4 6 6 7 7 7 6 5 4 5 6 8 9 9 8 7 6 7 9 10 9 8 6 6 7 7 8 9 10 10 10 9 9 9 8 8 8 8 8 9 9 10 10 9 9 9 9 9 9 9 10 10 10 10 10 10 10 10 10 9 10 11 12 12 12 12 12 11 9 8 6 6 8 11 11 10 10 12 11
4 4 4 4 4 5 6 7 7 7 7 6 6 5 6 7 7 7 6 5 5 6 7 7 7 7 7 8 7 8 9 9 9 10 9 9 9 9 9 9 9 9 9 10 10 10 11 10 10 10 9 9 9 10 10 10 11 12 12 12 12 12 12 11 11 11 10 10 11 12 13 13 13 13 13 14 12 9 8 8 12 13 11 11 11
3 3 3 5 6 7 8 8 7 7 6 5 6 7 7 7 6 6 6 8 10 11 10 9 8 8 8 8 8 9 9 8 8 8 7 8 8 8 9 9 10 10 10 10 10 10 10 9 9 8 8 10 11 11 11 11 12 12 13 13 13 13 13 14 14 13 12 12 12 12 13 13 13 13 14 15 16 14 12 10 12 14 13 12 12
4 5 7 9 10 10 9 8 7 6 5 7 8 8 8 8 9 10 13 14 13 11 9 8 7 7 7 6 6 6 7 7 7 8 8 8 9 9 9 10 10 10 10 10 10 9 8 8 8 8 9 10 10 11 12 13 13 13 14 14 15 16 16 17 17 17 16 15 15 14 15 16 15 14 14 14 15 16 16 13 11 12 13 13 12
6 8 10 11 11 10 8 6 4 4 6 8 8 8 9 10 11 11 10 8 6 5 5 5 5 4 5 5 6 7 7 8 9 10 10 10 10 10 9 10 10 11 11 11 11 10 9 9 9 9 10 9 10 11 12 14 15 15 15 15 16 16 17 18 19 20 21 20 20 19 18 19 19 19 18 16 15 15 15 14 13 12 12 12 10
9 10 10 9 7 5 3 2 3 6 8 8 8 10 10 9 7 6 5 4 4 4 4 5 5 5 6 7 8 9 10 10 10 10 10 10 10 10 10 9 10 10 10 11 10 10 10 10 10 10 11 11 12 13 14 15 15 15 15 15 16 18 20 21 21 21 21 21 22 21 21 21 22 24 23 20 16 14 14 13 13 12 11 12 9
9 8 7 5 2 1 2 5 8 10 9 9 9 8 6 5 4 4 5 5 5 5 5 6 7 8 9 10 10 10 10 10 10 10 10 9 9 9 8 8 8 9 9 9 9 10 12 12 12 12 12 13 15 16 17 16 14 14 14 15 18 20 21 20 20 20 19 19 19 19 20 20 20 22 24 25 20 16 14 11 11 11 10 11 10
9 10 8 4 1 3 6 9 10 10 8 8 7 5 5 6 6 6 6 6 6 5 7 7 8 10 10 11 11 10 10 10 9 9 8 8 8 8 8 9 10 10 10 10 11 12 13 13 12 12 13 15 16 16 15 13 13 14 15 17 19 18 18 18 19 21 20 19 19 18 19 18 17 19 21 24 23 18 14 11 10 10 10 11 9
11 8 3 2 4 8 11 11 10 10 9 8 8 7 8 7 6 6 5 6 7 7 9 9 10 11 10 11 11 10 10 9 9 9 9 9 10 11 11 12 12 12 12 12 12 12 11 11 11 13 15 15 14 13 12 12 13 14 16 17 17 16 17 18 20 22 23 23 22 20 20 20 19 18 18 21 24 19 14 13 12 10 9 10 8
6 4 6 9 13 12 11 10 9 9 8 7 7 6 5 5 5 5 6 7 9 10 11 11 11 10 10 10 9 9 9 9 10 11 11 12 12 13 13 13 13 14 14 13 13 13 11 12 14 15 15 13 11 10 10 12 13 15 16 15 14 14 15 18 21 25 30 32 31 26 23 23 21 19 17 17 20 18 15 15 13 12 10 9 8
8 10 11 9 8 6 6 7 6 6 5 4 4 3 4 5 7 8 10 10 10 10 10 10 10 9 9 9 8 9 9 10 11 12 12 13 12 13 14 14 16 15 15 15 14 13 13 14 15 14 12 11 11 10 10 12 14 15 15 13 13 13 15 20 25 31 40 45 47 42 32 26 22 19 18 17 18 16 15 18 15 12 10 9 9
8 7 5 3 3 5 5 4 3 3 3 4 5 6 8 9 9 9 9 9 8 8 8 8 9 9 10 10 10 11 11 12 12 12 13 14 14 15 15 16 17 15 16 16 14 14 13 14 14 12 11 10 10 11 11 14 15 14 14 13 12 15 20 24 25 31 43 52 55 51 40 30 22 19 18 16 17 15 15 19 17 13 11 9 10
4 4 4 6 6 5 3 3 3 4 4 6 6 7 8 7 7 7 7 7 8 8 9 9 9 10 11 12 12 12 13 13 14 15 16 17 16 17 17 16 16 15 15 14 13 13 12 12 13 11 11 10 10 12 12 13 14 13 13 12 15 21 23 22 24 31 45 55 55 49 38 29 21 19 18 17 16 15 15 18 16 13 11 10 11
4 5 5 5 3 2 3 4 5 6 7 8 9 11 12 12 13 15 16 18 18 18 18 18 18 17 16 16 16 16 16 16 17 17 16 15 15 15 15 14 14 13 12 12 11 12 11 12 12 11 10 9 10 13 12 12 12 12 14 16 19 23 20 21 29 40 52 55 49 42 29 18 19 21 17 15 15 15 15 17 16 13 12 11 11
5 4 3 3 3 5 7 8 10 12 14 15 15 15 16 16 17 17 18 19 19 19 21 22 24 23 22 21 20 19 18 16 16 15 14 14 14 14 13 12 12 12 11 12 12 12 12 11 11 11 9 10 13 14 13 11 11 14 18 18 19 20 18 26 41 51 56 48 33 31 22 6 10 21 20 15 13 15 17 15 14 14 12 12 11
3 3 4 7 10 12 14 15 17 18 17 16 15 15 15 14 15 14 14 15 16 17 20 22 24 23 21 20 18 16 15 14 15 14 14 14 12 12 12 12 13 12 12 12 11 12 12 11 11 10 9 13 15 15 12 9 12 19 19 17 19 19 21 38 57 56 46 31 17 23 29 15 4 10 17 16 12 15 18 15 14 14 12 11 11
4 9 13 16 17 17 18 19 18 17 16 16 17 17 17 17 17 16 16 16 17 18 20 21 21 20 18 17 15 14 14 14 15 14 12 12 11 12 13 12 13 12 11 11 10 11 12 12 12 10 11 15 15 14 11 8 16 21 17 18 20 21 34 55 60 42 27 22 15 13 22 25 16 10 9 10 11 15 18 16 15 14 11 10 10
14 18 19 18 17 17 18 17 16 16 16 16 17 17 18 19 20 20 19 18 18 19 21 21 20 19 17 16 14 14 14 14 13 12 11 11 12 13 13 12 11 9 9 9 9 11 12 12 12 10 12 16 15 14 10 9 21 20 14 21 24 26 47 54 38 24 19 17 13 11 13 16 20 20 13 8 12 16 18 19 16 13 12 10 11
19 19 17 15 15 15 14 13 13 14 15 16 17 17 18 20 21 23 22 21 20 20 21 21 19 18 16 15 14 13 14 13 11 11 12 13 13 12 11 10 9 9 10 11 10 10 10 12 11 10 14 17 16 14 9 13 24 17 13 26 27 30 46 37 17 17 19 10 11 23 26 15 10 13 9 7 13 18 20 20 14 13 13 11 12
16 15 12 11 11 9 9 10 10 12 13 14 15 15 16 17 18 22 24 24 21 20 22 21 19 18 16 15 14 13 13 12 12 13 13 13 12 11 10 9 9 10 11 11 9 8 10 12 12 12 14 17 17 13 9 19 24 13 16 31 29 28 34 24 11 11 10 13 23 28 24 14 8 7 6 12 18 20 22 18 12 14 16 12 11
11 9 7 7 6 6 8 8 8 9 10 11 12 12 13 13 14 18 22 24 22 20 21 21 19 18 16 15 14 12 12 12 12 13 12 12 11 10 10 10 10 11 10 9 9 9 11 12 13 15 15 17 18 11 11 23 21 10 21 34 27 22 24 20 16 9 5 13 20 15 10 8 8 8 11 19 23 23 22 16 14 17 15 10 9
6 5 4 5 6 8 8 8 8 9 9 10 11 10 11 10 11 13 18 22 22 19 19 19 18 17 14 13 12 11 11 11 11 12 11 11 10 10 10 10 10 10 9 9 10 10 11 11 12 15 17 19 18 11 14 25 17 10 26 34 22 16 21 22 18 14 16 20 16 10 10 10 11 15 18 22 23 21 18 13 16 17 11 7 8
4 5 6 7 7 8 8 8 9 9 9 10 10 10 10 9 10 11 15 20 21 19 18 18 17 16 13 11 11 10 10 9 9 10 10 10 11 11 11 11 11 11 10 9 10 10 11 11 12 16 20 21 16 11 18 24 13 13 29 32 19 17 23 23 14 7 12 17 14 11 12 12 15 20 22 23 20 15 13 13 15 14 8 6 7
6 6 6 6 6 7 7 8 9 9 10 10 10 10 9 9 10 11 14 19 20 19 18 17 17 17 14 12 11 10 10 9 10 11 11 12 12 12 11 11 11 10 9 8 9 10 11 11 13 18 22 23 15 11 20 21 11 16 30 28 20 20 22 17 9 4 5 8 10 10 12 13 16 21 22 20 15 10 11 14 13 11 7 6 7
4 4 4 5 6 7 8 8 9 10 10 10 10 9 9 9 10 12 15 19 20 19 17 16 16 16 15 13 12 12 12 11 12 13 13 12 12 11 11 11 11 10 9 9 9 10 12 13 16 21 25 22 13 12 22 19 12 19 28 25 20 21 20 11 5 7 12 16 16 13 13 16 18 21 20 15 12 11 13 13 11 9 7 7 9
4 4 5 6 7 8 8 9 10 10 10 10 9 9 9 10 11 13 16 19 20 19 16 14 14 14 14 13 13 13 13 13 14 13 13 13 12 12 11 10 11 10 9 10 10 12 15 17 19 24 26 20 11 15 23 17 12 20 24 22 21 20 17 12 9 11 16 21 22 17 17 20 19 18 16 12 12 12 12 13 10 9 9 10 11
4 5 6 7 7 8 9 9 10 10 10 9 9 9 9 10 11 13 16 18 19 19 16 14 13 13 13 13 13 14 14 13 14 13 12 13 11 11 11 10 11 10 9 12 14 16 19 20 22 27 26 17 10 18 24 16 12 20 20 18 21 19 15 12 12 15 17 20 23 21 19 19 17 16 14 12 11 10 11 11 9 10 12 11 10
5 6 6 6 7 8 8 9 9 9 9 8 8 9 9 11 12 13 16 17 18 19 17 15 14 13 14 14 13 13 12 11 12 11 11 12 11 11 11 11 12 12 13 17 18 20 21 19 23 29 23 14 12 19 24 16 13 19 19 16 19 19 14 9 8 11 17 18 18 19 18 16 15 15 13 12 12 10 9 9 9 13 13 9 8
7 7 7 7 8 8 8 9 9 8 9 8 8 9 10 12 13 14 16 18 18 19 17 16 15 14 14 13 13 13 12 12 12 12 12 13 13 14 14 15 17 17 19 21 20 20 20 19 26 29 19 12 15 20 23 17 12 17 19 14 15 16 13 10 6 7 14 18 17 15 15 14 13 13 13 13 13 10 8 9 12 13 10 8 9
7 7 7 6 7 7 7 8 8 8 8 8 9 10 11 12 14 15 17 18 18 18 17 15 14 14 14 14 15 16 16 17 17 17 17 17 17 18 18 18 19 19 20 20 18 18 19 21 28 26 14 12 17 19 22 18 11 14 18 13 12 14 13 13 10 6 8 14 17 15 14 14 13 14 15 13 11 11 9 11 13 11 8 8 12
8 6 5 5 6 7 8 8 8 8 8 8 9 11 12 14 15 16 18 19 20 19 18 16 16 16 16 17 18 19 19 19 20 19 20 20 20 20 20 19 19 20 19 18 18 18 19 24 28 20 11 15 18 17 22 20 10 11 16 13 13 14 13 14 15 11 9 12 16 15 13 15 14 15 16 13 11 13 13 12 12 8 8 10 13
7 5 5 5 6 7 8 8 8 8 8 8 10 13 14 15 15 16 18 20 21 21 19 18 17 17 17 17 17 18 18 18 18 18 18 18 18 19 19 19 19 19 19 18 19 20 21 25 24 14 11 17 17 16 23 21 10 9 12 12 15 15 11 11 14 15 13 12 13 12 12 14 15 14 14 13 12 14 13 12 10 6 9 14 14
6 5 5 5 6 7 8 7 7 8 8 9 12 14 15 15 16 17 20 21 22 22 19 17 18 16 16 17 16 17 17 16 16 16 15 16 16 16 17 18 18 19 19 19 20 22 24 25 20 12 13 18 16 17 24 21 11 9 11 12 15 14 9 10 13 15 16 14 10 9 10 13 14 12 12 12 12 13 11 9 10 9 11 15 15
6 6 4 4 6 7 7 7 7 8 9 10 12 15 16 16 17 18 20 21 22 21 18 16 17 17 16 17 16 16 16 16 16 16 16 16 16 16 17 17 18 19 19 20 22 23 24 23 16 11 14 17 15 17 23 22 14 12 12 14 15 12 8 10 12 12 15 16 11 7 9 12 13 13 14 13 11 11 10 8 9 11 13 15 16
6 5 4 4 5 6 7 8 7 8 9 10 13 16 16 17 18 19 20 21 20 19 17 15 16 16 15 16 15 15 16 16 17 18 18 19 19 20 20 19 19 19 20 22 23 23 24 20 13 11 15 16 14 14 19 22 20 17 15 14 14 11 8 10 12 12 14 17 15 8 7 10 12 13 14 14 11 10 9 8 8 11 13 15 18
5 5 4 3 5 7 8 8 8 8 10 10 13 17 17 17 18 19 20 19 17 16 14 13 13 12 12 12 12 12 12 12 13 14 15 18 20 21 22 21 20 20 20 23 25 23 22 18 12 11 16 17 13 10 11 16 19 20 18 15 13 12 9 10 14 12 10 16 18 11 6 7 10 13 14 13 11 9 8 9 9 12 13 15 18
6 6 5 4 5 7 8 9 8 9 10 12 14 17 17 18 19 20 19 17 15 14 13 13 13 12 12 13 13 13 13 13 14 14 14 15 16 18 21 23 22 22 22 24 26 23 20 17 11 10 16 17 13 9 8 10 12 15 16 14 13 13 9 9 14 12 8 13 19 15 9 6 8 12 13 11 10 9 8 9 11 12 14 17 18
7 6 5 4 6 7 8 10 9 9 11 13 14 16 17 19 20 19 18 16 15 16 16 17 18 19 19 20 20 21 23 24 25 26 24 22 19 17 20 23 23 24 23 24 25 22 18 16 12 10 16 19 13 9 10 12 13 12 12 13 14 14 9 7 12 13 7 9 16 17 13 9 8 10 12 11 10 10 9 10 12 13 15 18 19
8 6 4 4 6 7 9 9 9 10 12 13 15 17 18 20 20 18 17 16 16 18 19 20 22 22 22 23 23 25 27 28 29 30 31 32 28 22 22 24 24 24 25 24 24 21 17 15 12 10 16 20 16 11 10 12 14 13 12 14 15 14 10 7 11 14 9 6 12 18 17 13 11 10 10 11 9 9 10 11 14 17 19 19 18
8 6 4 5 6 7 8 9 9 11 12 13 16 18 19 20 19 17 18 19 21 23 23 23 24 22 21 21 22 23 24 22 22 22 23 28 29 25 24 25 23 24 26 25 23 20 17 15 12 10 14 19 18 14 10 7 8 10 10 11 13 12 9 8 10 14 12 8 11 17 17 15 13 11 10 10 9 8 11 13 15 18 19 16 14
7 6 5 5 7 7 8 9 10 12 13 14 17 20 20 19 18 18 21 23 24 25 25 25 24 21 19 19 19 19 18 15 13 13 16 21 25 23 23 26 25 24 26 25 22 20 17 14 11 9 14 19 17 13 10 7 7 11 12 12 11 9 8 10 12 15 15 12 13 16 15 13 12 11 9 9 10 10 12 14 16 19 18 12 11
7 6 5 6 8 8 9 11 11 12 13 14 18 21 20 18 19 21 22 22 22 22 23 24 23 20 18 17 16 15 13 11 10 10 13 20 24 21 21 25 27 27 27 24 21 19 17 14 11 9 13 19 17 12 10 8 9 14 19 18 15 13 12 14 18 19 17 15 13 14 13 11 10 11 10 10 11 12 11 14 18 19 16 11 10
6 5 5 7 8 9 10 11 12 12 13 15 19 22 21 19 20 21 20 19 19 21 23 23 22 19 17 15 13 11 10 10 10 11 12 18 23 21 19 22 26 29 27 23 20 18 16 14 11 10 13 17 15 11 9 10 13 18 24 24 21 21 20 20 21 20 17 14 13 12 13 13 11 12 13 12 12 13 12 15 19 18 14 11 10
6 5 6 7 8 9 10 11 11 12 14 17 22 22 20 19 20 19 18 19 22 26 27 25 21 19 18 16 13 12 10 10 13 15 17 18 21 22 22 21 24 28 28 22 18 18 16 13 10 10 14 17 16 11 9 11 16 20 22 21 20 20 20 19 19 17 14 12 12 12 12 13 12 13 13 12 12 12 12 14 17 15 12 11 12
Height
5694 5691 5689 5687 5684 5682 5679 5677 5675 5672 5669 5667 5665 5662 5660 5657 5654 5652 5649 5646 5643 5641 5638 5636 5634 5633 5631 5629 5627 5625 5623 5621 5619 5617 5615 5614 5612 5610 5608 5605 5603 5601 5598 5596 5594 5591 5589 5587 5584 5582 5580 5579 5578 5577 5575 5574 5572 5570 5568 5567 5566 5565 5565 5563 5560 5560 5561 5562 5562 5561 5562 5561 5560 5560 5560 5560 5560 5560 5561 5561 5561 5562 5562 5562 5564
5688 5686 5683 5681 5678 5676 5674 5671 5669 5666 5663 5661 5659 5656 5654 5651 5648 5645 5642 5639 5636 5634 5631 5629 5627 5625 5623 5621 5619 5617 5614 5612 5610 5608 5606 5604 5602 5600 5598 5596 5594 5591 5588 5586 5584 5581 5579 5576 5573 5571 5568 5566 5566 5565 5563 5561 5560 5558 5556 5555 5554 5553 5553 5551 5547 5546 5548 5549 5548 5549 5551 5549 5547 5548 5549 5549 5548 5548 5549 5549 5549 5550 5550 5550 5552
5683 5680 5678 5675 5673 5670 5668 5665 5663 5660 5658 5655 5653 5651 5648 5644 5641 5638 5635 5632 5630 5627 5624 5622 5619 5617 5614 5612 5609 5608 5605 5603 5601 5598 5596 5595 5592 5591 5589 5586 5584 5582 5579 5576 5573 5571 5568 5565 5563 5560 5557 5554 5553 5552 5551 5549 5547 5545 5544 5543 5542 5541 5541 5539 5536 5534 5535 5535 5534 5536 5538 5537 5536 5535 5536 5537 5537 5536 5537 5537 5537 5538 5538 5538 5540
5677 5675 5672 5670 5667 5664 5662 5659 5657 5655 5652 5650 5648 5645 5641 5637 5634 5631 5628 5626 5623 5620 5617 5615 5612 5609 5606 5603 5600 5598 5596 5593 5591 5589 5586 5584 5582 5579 5577 5575 5573 5571 5568 5565 5562 5560 5557 5554 5552 5549 5546 5543 5541 5540 5538 5536 5534 5532 5531 5529 5529 5529 5528 5527 5524 5522 5522 5521 5520 5523 5524 5524 5525 5524 5523 5524 5525 5525 5525 5525 5525 5526 5526 5527 5528
5672 5669 5667 5664 5661 5659 5656 5653 5651 5649 5646 5643 5641 5638 5634 5630 5627 5624 5622 5619 5616 5613 5610 5607 5604 5601 5598 5595 5592 5589 5586 5583 5581 5579 5576 5573 5570 5568 5565 5563 5561 5559 5556 5553 5551 5548 5545 5543 5540 5537 5534 5531 5529 5527 5526 5524 5522 5520 5517 5516 5516 5515 5515 5514 5513 5510 5507 5506 5507 5509 5510 5509 5512 5512 5510 5511 5512 5513 5513 5513 5513 5514 5514 5515 5516
5667 5664 5661 5658 5656 5653 5650 5647 5645 5642 5639 5636 5633 5630 5626 5623 5620 5618 5615 5613 5609 5605 5602 5599 5596 5593 5589 5586 5583 5580 5578 5574 5571 5569 5566 5563 5561 5558 5555 5552 5550 5548 5545 5542 5539 5537 5534 5531 5528 5525 5523 5519 5516 5515 5514 5512 5509 5507 5504 5502 5502 5501 5500 5501 5502 5498 5493 5492 5493 5494 5495 5494 5496 5498 5498 5499 5500 5500 5501 5501 5502 5501 5502 5504 5504
5661 5658 5655 5652 5650 5647 5644 5641 5638 5635 5631 5628 5625 5622 5619 5616 5613 5611 5608 5605 5601 5597 5594 5590 5586 5583 5579 5576 5573 5570 5568 5565 5561 5558 5556 5553 5551 5548 5544 5541 5538 5536 5533 5531 5528 5525 5523 5520 5516 5513 5510 5507 5504 5503 5501 5499 5496 5494 5491 5488 5488 5486 5485 5486 5488 5485 5479 5479 5479 5477 5480 5480 5480 5482 5484 5485 5487 5488 5488 5489 5490 5489 5490 5492 5493
5656 5653 5650 5647 5643 5640 5637 5633 5630 5627 5623 5620 5617 5614 5611 5608 5605 5602 5599 5595 5592 5588 5584 5581 5577 5573 5569 5566 5563 5560 5557 5554 5551 5548 5545 5542 5540 5537 5533 5530 5527 5524 5521 5519 5517 5514 5511 5508 5505 5502 5498 5495 5491 5489 5488 5484 5482 5481 5477 5475 5473 5472 5470 5470 5471 5470 5466 5466 5463 5461 5464 5465 5465 5466 5469 5470 5472 5476 5477 5475 5476 5477 5478 5480 5481
5651 5648 5644 5641 5637 5633 5629 5625 5621 5618 5615 5611 5608 5605 5602 5598 5595 5592 5589 5585 5582 5578 5575 5572 5568 5564 5560 5556 5553 5550 5546 5544 5541 5538 5534 5531 5528 5525 5522 5518 5515 5512 5509 5507 5504 5502 5499 5496 5493 5490 5487 5483 5480 5477 5474 5471 5468 5466 5463 5461 5459 5457 5455 5453 5454 5455 5452 5450 5448 5445 5447 5449 5450 5451 5453 5455 5457 5460 5464 5463 5462 5464 5467 5468 5469
5644 5641 5637 5633 5629 5625 5621 5617 5613 5610 5607 5603 5600 5597 5593 5589 5586 5583 5580 5576 5573 5569 5565 5562 5559 5556 5553 5548 5545 5541 5537 5533 5530 5527 5524 5520 5518 5515 5511 5507 5504 5500 5497 5494 5492 5489 5487 5484 5481 5478 5475 5471 5468 5465 5462 5458 5454 5451 5448 5445 5443 5442 5440 5437 5437 5438 5436 5435 5433 5430 5430 5432 5434 5436 5438 5440 5441 5444 5449 5452 5451 5450 5454 5456 5457
5636 5633 5629 5625 5621 5616 5612 5609 5605 5602 5599 5596 5592 5588 5584 5580 5577 5574 5571 5567 5564 5561 5557 5554 5550 5547 5543 5540 5536 5531 5527 5523 5520 5516 5513 5509 5506 5504 5500 5497 5493 5489 5485 5482 5479 5477 5475 5472 5468 5465 5462 5459 5455 5452 5448 5445 5440 5437 5433 5430 5428 5426 5424 5422 5420 5421 5420 5418 5417 5415 5414 5415 5416 5420 5423 5424 5426 5429 5434 5438 5440 5438 5440 5444 5444
5628 5624 5620 5616 5612 5608 5604 5600 5597 5594 5591 5587 5582 5578 5574 5571 5567 5565 5562 5558 5555 5552 5548 5544 5540 5536 5532 5528 5524 5521 5517 5513 5510 5506 5502 5497 5495 5492 5489 5486 5481 5477 5473 5469 5466 5463 5462 5459 5455 5452 5449 5445 5442 5438 5434 5430 5426 5423 5419 5416 5413 5410 5408 5405 5403 5404 5403 5401 5401 5399 5398 5398 5399 5403 5408 5409 5411 5415 5418 5424 5428 5427 5429 5432 5432
5621 5617 5613 5609 5604 5600 5596 5593 5590 5586 5582 5578 5573 5569 5565 5562 5559 5556 5553 5549 5545 5541 5537 5533 5529 5525 5521 5517 5513 5509 5506 5502 5499 5496 5492 5487 5483 5480 5477 5474 5470 5466 5461 5456 5452 5449 5447 5445 5441 5438 5435 5431 5428 5424 5421 5417 5413 5409 5406 5402 5398 5395 5391 5388 5386 5387 5386 5384 5384 5384 5382 5383 5385 5387 5391 5394 5397 5401 5404 5410 5414 5414 5417 5420 5420
5615 5611 5607 5602 5598 5594 5590 5586 5583 5579 5574 5570 5565 5561 5558 5554 5550 5547 5543 5539 5535 5531 5527 5522 5518 5514 5509 5506 5502 5497 5494 5491 5488 5484 5481 5477 5473 5470 5467 5462 5458 5455 5450 5445 5441 5436 5434 5431 5428 5424 5421 5418 5414 5411 5407 5404 5399 5395 5392 5388 5383 5380 5376 5372 5371 5370 5369 5368 5368 5368 5367 5368 5370 5372 5374 5378 5383 5387 5391 5397 5400 5401 5406 5409 5409
5609 5605 5600 5596 5591 5587 5583 5580 5575 5571 5566 5562 5557 5553 5550 5546 5542 5538 5534 5530 5525 5521 5517 5512 5508 5504 5499 5494 5490 5486 5482 5478 5475 5472 5468 5465 5462 5459 5456 5452 5447 5444 5440 5435 5430 5425 5421 5418 5414 5411 5407 5404 5401 5397 5393 5390 5385 5381 5377 5373 5369 5365 5360 5357 5356 5353 5352 5352 5352 5351 5352 5354 5356 5358 5360 5364 5369 5373 5378 5383 5386 5389 5394 5398 5399
5603 5599 5594 5590 5585 5581 5577 5573 5568 5564 5560 5555 5550 5546 5542 5538 5534 5529 5525 5520 5515 5510 5506 5502 5497 5493 5488 5483 5478 5474 5469 5465 5462 5459 5455 5451 5449 5446 5443 5440 5435 5432 5428 5424 5419 5414 5409 5405 5401 5397 5393 5390 5386 5382 5378 5375 5370 5366 5363 5359 5355 5350 5345 5342 5340 5337 5336 5336 5335 5335 5336 5339 5342 5344 5347 5350 5354 5360 5365 5369 5374 5378 5382 5386 5388
5598 5593 5588 5584 5581 5576 5572 5567 5563 5558 5554 5549 5544 5539 5534 5529 5524 5520 5515 5510 5505 5500 5496 5491 5486 5482 5478 5472 5467 5462 5457 5453 5449 5446 5442 5438 5435 5431 5428 5426 5422 5418 5414 5411 5407 5402 5397 5393 5389 5385 5380 5376 5373 5369 5364 5360 5355 5351 5348 5345 5341 5335 5329 5326 5322 5319 5318 5317 5316 5318 5320 5324 5328 5330 5334 5338 5342 5346 5352 5357 5362 5366 5370 5374 5377
5591 5586 5582 5578 5574 5570 5565 5561 5556 5551 5546 5541 5535 5530 5525 5520 5514 5509 5504 5500 5495 5490 5485 5480 5475 5470 5466 5461 5456 5450 5445 5441 5437 5433 5429 5425 5421 5417 5413 5411 5408 5404 5400 5397 5393 5389 5384 5380 5376 5372 5368 5363 5360 5356 5351 5347 5342 5338 5335 5331 5327 5320 5313 5309 5305 5301 5299 5298 5298 5300 5304 5309 5314 5317 5321 5326 5329 5335 5340 5345 5350 5354 5358 5363 5366
5582 5578 5575 5571 5566 5561 5557 5552 5548 5543 5538 5532 5526 5521 5516 5511 5505 5499 5494 5489 5484 5478 5473 5469 5463 5457 5453 5448 5443 5438 5433 5428 5424 5419 5415 5411 5407 5404 5400 5397 5394 5390 5386 5383 5379 5375 5371 5367 5363 5360 5356 5352 5347 5343 5338 5334 5329 5325 5322 5317 5312 5306 5299 5295 5290 5284 5282 5280 5281 5284 5289 5295 5300 5305 5310 5314 5318 5324 5329 5333 5339 5343 5348 5352 5355
5575 5571 5567 5563 5558 5554 5549 5544 5540 5534 5529 5523 5517 5512 5506 5500 5495 5489 5483 5478 5472 5466 5461 5457 5452 5446 5440 5435 5430 5425 5420 5416 5411 5406 5402 5398 5394 5391 5387 5384 5381 5377 5373 5370 5367 5363 5359 5355 5351 5347 5344 5340 5336 5331 5326 5321 5317 5313 5309 5304 5299 5292 5286 5282 5276 5270 5267 5266 5267 5272 5278 5284 5289 5294 5299 5304 5309 5313 5318 5323 5328 5333 5337 5342 5345
5568 5564 5559 5555 5550 5546 5540 5535 5530 5525 5519 5513 5507 5501 5495 5488 5483 5477 5471 5465 5460 5455 5449 5444 5439 5434 5428 5424 5419 5414 5409 5404 5400 5395 5390 5386 5382 5379 5376 5372 5369 5366 5362 5358 5355 5351 5346 5343 5339 5336 5332 5328 5324 5320 5315 5310 5305 5301 5296 5291 5285 5279 5274 5269 5264 5258 5255 5255 5257 5262 5268 5274 5279 5284 5289 5295 5299 5304 5308 5313 5318 5323 5327 5332 5335
5560 5555 5551 5546 5541 5536 5531 5525 5520 5514 5508 5503 5496 5490 5483 5477 5471 5465 5459 5452 5447 5442 5437 5432 5427 5422 5416 5411 5407 5402 5398 5393 5389 5385 5380 5375 5372 5369 5365 5361 5359 5355 5351 5347 5343 5339 5335 5331 5328 5325 5321 5317 5313 5308 5304 5299 5294 5289 5284 5278 5273 5267 5262 5257 5252 5248 5246 5247 5250 5254 5261 5267 5271 5276 5281 5286 5291 5294 5299 5304 5309 5314 5318 5322 5326
5553 5548 5543 5538 5532 5526 5521 5516 5510 5504 5498 5492 5485 5479 5472 5465 5459 5453 5447 5441 5435 5430 5425 5420 5415 5410 5404 5399 5395 5391 5386 5382 5378 5374 5370 5365 5362 5358 5355 5351 5348 5344 5340 5336 5331 5327 5324 5320 5317 5314 5310 5306 5301 5297 5293 5288 5283 5278 5273 5267 5262 5256 5251 5246 5241 5239 5240 5241 5244 5249 5254 5259 5264 5268 5274 5278 5282 5286 5290 5295 5300 5305 5309 5313 5316
5545 5541 5535 5529 5523 5517 5512 5506 5500 5494 5488 5481 5475 5468 5461 5454 5447 5442 5436 5430 5423 5418 5413 5408 5403 5399 5393 5388 5384 5380 5376 5371 5367 5363 5359 5355 5351 5348 5344 5340 5337 5334 5330 5326 5321 5316 5313 5310 5306 5303 5299 5295 5290 5286 5282 5278 5273 5268 5262 5257 5252 5247 5242 5237 5234 5234 5235 5237 5240 5245 5249 5253 5257 5262 5267 5271 5274 5277 5282 5287 5292 5296 5301 5304 5308
5538 5533 5527 5521 5514 5509 5503 5497 5490 5484 5478 5472 5465 5458 5451 5444 5436 5430 5425 5419 5413 5407 5402 5397 5392 5388 5383 5378 5373 5369 5365 5361 5357 5353 5349 5345 5341 5337 5334 5330 5327 5324 5320 5316 5312 5308 5303 5299 5296 5292 5288 5284 5280 5276 5272 5268 5263 5258 5253 5248 5244 5239 5234 5231 5230 5230 5232 5234 5237 5240 5244 5247 5251 5256 5261 5264 5266 5270 5274 5279 5284 5288 5293 5296 5300
5530 5524 5518 5512 5506 5500 5494 5487 5481 5475 5468 5462 5456 5449 5442 5435 5426 5418 5413 5408 5403 5397 5391 5386 5382 5377 5373 5368 5364 5359 5355 5352 5347 5343 5340 5336 5332 5328 5324 5320 5317 5314 5311 5307 5303 5299 5294 5290 5285 5281 5277 5274 5270 5266 5263 5259 5254 5249 5245 5240 5236 5232 5229 5227 5227 5228 5229 5231 5233 5236 5239 5242 5246 5249 5253 5256 5259 5263 5266 5271 5276 5281 5285 5289 5293
5520 5514 5508 5503 5497 5491 5485 5479 5472 5466 5459 5452 5445 5438 5432 5425 5418 5410 5403 5397 5392 5387 5381 5376 5371 5367 5363 5358 5354 5349 5345 5342 5338 5334 5330 5326 5323 5318 5315 5311 5307 5303 5301 5297 5293 5289 5285 5280 5276 5271 5267 5263 5260 5257 5254 5250 5245 5241 5237 5233 5230 5227 5225 5224 5224 5225 5226 5228 5229 5231 5234 5237 5240 5243 5246 5249 5253 5256 5260 5264 5269 5273 5278 5282 5286
5511 5505 5500 5495 5490 5483 5477 5470 5463 5458 5451 5444 5437 5430 5423 5416 5410 5403 5396 5389 5383 5377 5372 5367 5362 5357 5353 5348 5344 5340 5335 5331 5328 5324 5320 5317 5313 5309 5305 5301 5297 5293 5289 5286 5282 5279 5275 5271 5266 5262 5257 5254 5251 5248 5245 5241 5237 5233 5229 5226 5224 5222 5220 5220 5220 5221 5222 5224 5225 5227 5229 5231 5234 5237 5239 5242 5246 5250 5254 5258 5263 5267 5271 5275 5279
5505 5499 5493 5487 5480 5474 5468 5461 5456 5450 5444 5438 5431 5424 5417 5409 5401 5394 5387 5380 5374 5368 5363 5358 5352 5347 5343 5338 5334 5330 5326 5322 5317 5314 5310 5306 5303 5299 5295 5291 5287 5283 5279 5275 5272 5268 5265 5261 5257 5252 5248 5245 5242 5240 5236 5232 5229 5226 5222 5220 5218 5216 5215 5215 5216 5217 5218 5219 5220 5222 5223 5225 5228 5231 5234 5236 5240 5244 5249 5253 5257 5261 5265 5269 5273
5497 5491 5485 5478 5472 5466 5460 5454 5448 5442 5436 5430 5423 5416 5408 5401 5393 5386 5379 5371 5365 5359 5353 5348 5343 5338 5333 5329 5324 5320 5316 5311 5307 5303 5300 5296 5292 5288 5284 5280 5277 5273 5269 5265 5261 5258 5254 5250 5247 5243 5239 5237 5234 5231 5227 5224 5221 5219 5216 5213 5211 5210 5210 5210 5211 5212 5213 5214 5215 5216 5218 5220 5222 5225 5228 5231 5235 5239 5243 5247 5251 5255 5259 5263 5266
5488 5483 5477 5472 5466 5459 5453 5446 5440 5433 5427 5420 5414 5407 5399 5391 5384 5377 5369 5362 5356 5349 5344 5338 5333 5328 5323 5318 5314 5310 5305 5300 5296 5292 5289 5285 5281 5277 5273 5269 5266 5262 5258 5255 5251 5247 5244 5240 5237 5234 5231 5228 5226 5223 5219 5216 5214 5211 5209 5207 5205 5204 5204 5205 5206 5208 5208 5209 5210 5211 5213 5215 5217 5220 5223 5227 5230 5234 5238 5242 5245 5249 5253 5257 5260
5482 5477 5472 5466 5459 5452 5445 5439 5432 5425 5418 5411 5404 5397 5390 5382 5374 5367 5360 5353 5346 5339 5334 5328 5322 5317 5313 5308 5303 5299 5295 5290 5286 5282 5278 5274 5270 5266 5263 5259 5255 5252 5248 5244 5241 5237 5234 5230 5227 5224 5222 5219 5217 5214 5210 5208 5206 5204 5203 5201 5200 5199 5200 5201 5202 5203 5204 5204 5205 5207 5208 5210 5213 5216 5219 5222 5226 5229 5233 5237 5240 5244 5247 5251 5254
5476 5470 5464 5458 5451 5444 5437 5430 5423 5416 5409 5401 5394 5386 5379 5371 5364 5357 5349 5342 5336 5329 5323 5318 5312 5307 5302 5297 5293 5289 5285 5280 5276 5272 5268 5264 5260 5256 5252 5249 5245 5242 5238 5234 5231 5227 5224 5220 5217 5215 5212 5210 5208 5206 5202 5201 5200 5198 5197 5196 5195 5195 5195 5196 5197 5198 5199 5200 5201 5202 5204 5206 5208 5211 5215 5218 5221 5224 5228 5232 5235 5239 5242 5245 5249
5470 5463 5456 5450 5443 5436 5429 5421 5414 5408 5400 5392 5384 5376 5368 5360 5353 5346 5339 5332 5326 5319 5313 5308 5303 5297 5292 5287 5282 5278 5274 5269 5265 5261 5257 5253 5249 5245 5242 5238 5235 5231 5228 5224 5220 5217 5213 5210 5207 5205 5203 5202 5200 5197 5195 5194 5193 5192 5191 5191 5191 5191 5191 5192 5193 5193 5194 5195 5196 5198 5200 5202 5204 5208 5211 5213 5216 5220 5223 5227 5230 5234 5237 5240 5243
5462 5457 5450 5442 5435 5429 5422 5414 5407 5399 5392 5385 5377 5368 5360 5351 5343 5337 5330 5322 5315 5309 5303 5297 5292 5287 5282 5277 5272 5268 5263 5259 5254 5250 5246 5242 5238 5234 5231 5227 5224 5221 5217 5213 5210 5206 5203 5200 5198 5196 5195 5193 5191 5190 5188 5188 5187 5186 5185 5186 5186 5187 5187 5187 5188 5189 5190 5191 5192 5194 5196 5198 5200 5203 5206 5209 5212 5215 5219 5222 5225 5229 5232 5235 5238
5453 5447 5441 5433 5425 5418 5412 5405 5397 5390 5383 5376 5368 5360 5352 5344 5335 5327 5320 5313 5306 5299 5293 5287 5281 5276 5271 5266 5261 5257 5253 5248 5243 5239 5235 5231 5227 5223 5219 5216 5213 5210 5206 5202 5199 5196 5194 5191 5189 5187 5186 5185 5183 5182 5182 5181 5181 5180 5180 5180 5182 5183 5183 5183 5183 5184 5186 5187 5188 5190 5192 5194 5196 5199 5202 5204 5207 5211 5214 5217 5221 5224 5227 5230 5233
5444 5437 5430 5424 5416 5407 5400 5393 5386 5379 5372 5365 5357 5349 5342 5334 5326 5319 5311 5303 5296 5289 5282 5276 5270 5265 5260 5254 5250 5245 5241 5237 5232 5228 5224 5220 5215 5212 5208 5205 5202 5199 5196 5192 5189 5187 5184 5182 5180 5179 5178 5177 5176 5175 5175 5175 5175 5175 5175 5175 5176 5177 5179 5179 5179 5180 5181 5183 5185 5186 5188 5190 5192 5195 5197 5200 5203 5207 5210 5213 5216 5219 5222 5225 5228
5436 5430 5423 5416 5409 5401 5392 5384 5377 5370 5362 5354 5347 5339 5331 5324 5316 5309 5302 5294 5287 5279 5272 5266 5260 5254 5249 5243 5238 5234 5229 5226 5221 5217 5213 5209 5205 5201 5198 5194 5191 5189 5186 5183 5180 5177 5175 5173 5172 5171 5171 5170 5169 5169 5169 5169 5169 5169 5169 5170 5171 5172 5174 5175 5175 5175 5177 5179 5181 5183 5184 5186 5188 5191 5193 5196 5199 5203 5206 5209 5212 5215 5218 5220 5222
5429 5422 5415 5408 5401 5393 5386 5377 5369 5361 5354 5346 5338 5330 5321 5314 5306 5298 5291 5284 5277 5270 5263 5256 5250 5244 5238 5233 5227 5223 5218 5214 5210 5206 5202 5198 5195 5191 5188 5184 5181 5178 5176 5173 5171 5169 5167 5166 5165 5164 5164 5163 5163 5162 5163 5164 5164 5164 5164 5165 5166 5167 5168 5170 5171 5171 5172 5174 5176 5179 5181 5182 5184 5187 5190 5192 5196 5199 5202 5204 5207 5210 5213 5215 5217
5424 5416 5409 5400 5392 5385 5378 5371 5363 5355 5347 5338 5330 5321 5312 5304 5296 5288 5281 5273 5266 5260 5253 5246 5241 5234 5228 5223 5217 5212 5208 5203 5199 5196 5192 5188 5184 5181 5178 5175 5172 5169 5167 5165 5162 5161 5160 5159 5158 5157 5157 5157 5156 5156 5157 5158 5158 5159 5159 5160 5161 5162 5163 5165 5166 5167 5168 5170 5172 5175 5177 5179 5181 5183 5186 5189 5192 5195 5197 5200 5203 5206 5208 5210 5212
5417 5410 5403 5395 5386 5377 5368 5361 5354 5347 5339 5330 5322 5313 5304 5295 5287 5279 5271 5263 5256 5250 5243 5237 5232 5226 5220 5214 5209 5203 5198 5194 5189 5186 5182 5178 5174 5171 5168 5165 5162 5160 5158 5156 5154 5153 5153 5152 5151 5151 5151 5151 5151 5151 5151 5152 5153 5154 5154 5156 5157 5158 5159 5160 5162 5163 5165 5166 5168 5171 5173 5175 5177 5180 5182 5185 5188 5191 5193 5196 5199 5201 5203 5205 5208
5409 5402 5395 5388 5380 5371 5361 5352 5344 5336 5328 5320 5313 5304 5295 5287 5278 5270 5262 5255 5248 5241 5234 5228 5223 5217 5212 5206 5201 5195 5190 5185 5181 5177 5174 5170 5166 5162 5159 5156 5154 5152 5150 5148 5147 5146 5146 5145 5145 5145 5145 5145 5145 5145 5146 5147 5148 5149 5150 5151 5152 5153 5154 5156 5157 5159 5160 5162 5164 5167 5170 5172 5174 5176 5179 5181 5184 5186 5189 5192 5194 5196 5199 5201 5204
5402 5395 5387 5380 5372 5364 5354 5345 5336 5327 5318 5310 5303 5295 5286 5277 5269 5262 5254 5246 5239 5232 5226 5219 5214 5208 5203 5197 5192 5187 5181 5176 5172 5169 5165 5162 5158 5155 5151 5148 5145 5144 5142 5140 5139 5139 5139 5138 5138 5138 5139 5139 5140 5140 5141 5142 5143 5144 5145 5146 5148 5149 5150 5152 5153 5154 5156 5158 5160 5163 5165 5168 5170 5172 5175 5178 5180 5182 5185 5187 5190 5192 5194 5197 5200
5394 5387 5379 5371 5363 5355 5346 5336 5326 5318 5309 5300 5293 5286 5277 5269 5260 5252 5245 5238 5231 5223 5216 5210 5204 5198 5193 5188 5183 5177 5172 5167 5163 5159 5156 5153 5150 5147 5143 5140 5137 5136 5134 5133 5132 5132 5132 5132 5132 5132 5133 5133 5134 5135 5136 5137 5138 5139 5141 5142 5143 5145 5146 5147 5148 5150 5152 5154 5156 5158 5161 5163 5165 5168 5171 5173 5175 5177 5180 5183 5185 5188 5190 5193 5196
5387 5379 5371 5363 5355 5347 5339 5329 5318 5309 5300 5291 5282 5275 5268 5260 5251 5243 5236 5229 5222 5215 5208 5201 5194 5188 5183 5178 5173 5167 5162 5157 5152 5149 5146 5143 5141 5139 5136 5132 5130 5128 5127 5126 5126 5125 5125 5126 5126 5127 5127 5128 5129 5130 5131 5133 5133 5135 5136 5137 5139 5141 5142 5143 5144 5146 5148 5150 5152 5154 5156 5159 5161 5164 5166 5169 5171 5173 5176 5179 5182 5184 5186 5189 5192
5380 5372 5365 5357 5349 5340 5331 5322 5312 5301 5292 5283 5273 5264 5256 5249 5241 5234 5226 5219 5212 5205 5198 5192 5185 5179 5173 5168 5163 5159 5154 5149 5144 5140 5136 5134 5132 5130 5127 5124 5122 5121 5119 5119 5119 5119 5119 5120 5120 5121 5122 5123 5124 5125 5127 5128 5129 5130 5131 5133 5135 5136 5138 5139 5140 5142 5144 5146 5148 5150 5152 5154 5157 5160 5162 5165 5167 5170 5173 5176 5178 5180 5183 5186 5189
5371 5364 5357 5349 5341 5333 5323 5314 5305 5295 5285 5275 5265 5255 5246 5238 5230 5223 5216 5210 5202 5195 5189 5183 5177 5171 5166 5160 5155 5151 5147 5142 5137 5133 5129 5126 5124 5122 5119 5117 5115 5114 5113 5113 5113 5113 5113 5114 5115 5116 5117 5118 5119 5120 5121 5123 5124 5125 5127 5128 5130 5132 5133 5134 5136 5138 5140 5142 5143 5145 5147 5150 5153 5156 5158 5161 5163 5166 5169 5172 5174 5176 5178 5181 5184
5363 5355 5347 5340 5332 5324 5314 5305 5296 5287 5277 5267 5257 5247 5237 5229 5221 5213 5207 5200 5193 5186 5180 5174 5168 5163 5158 5153 5148 5144 5140 5136 5132 5127 5122 5119 5118 5116 5113 5109 5108 5108 5106 5106 5107 5107 5108 5109 5110 5111 5112 5112 5113 5115 5116 5118 5119 5120 5121 5123 5125 5127 5129 5130 5131 5133 5135 5137 5139 5141 5143 5146 5149 5151 5154 5157 5159 5162 5165 5168 5170 5172 5174 5177 5179
5356 5347 5339 5331 5323 5315 5306 5296 5287 5277 5268 5258 5249 5239 5229 5220 5212 5204 5197 5191 5185 5179 5172 5166 5161 5156 5151 5146 5142 5137 5133 5130 5126 5122 5117 5111 5109 5109 5107 5104 5102 5101 5101 5101 5101 5102 5103 5104 5105 5106 5106 5107 5108 5110 5111 5113 5114 5115 5116 5118 5120 5122 5124 5125 5127 5129 5131 5134 5136 5138 5140 5142 5145 5148 5150 5153 5156 5158 5161 5163 5166 5168 5170 5173 5175
5348 5340 5331 5322 5313 5305 5296 5287 5278 5268 5259 5249 5240 5231 5221 5211 5203 5195 5188 5181 5176 5171 5165 5159 5153 5148 5144 5140 5136 5131 5127 5123 5120 5117 5114 5108 5102 5101 5100 5099 5097 5096 5096 5096 5096 5097 5098 5099 5100 5101 5102 5103 5104 5105 5107 5108 5109 5110 5111 5113 5115 5117 5119 5120 5122 5125 5128 5130 5132 5134 5137 5139 5142 5144 5147 5149 5152 5154 5156 5159 5161 5164 5166 5169 5171
5341 5333 5325 5316 5307 5298 5288 5279 5269 5260 5250 5241 5231 5222 5213 5203 5194 5186 5179 5171 5166 5161 5156 5151 5146 5141 5136 5133 5129 5125 5121 5118 5114 5110 5108 5105 5100 5096 5094 5093 5092 5091 5090 5091 5091 5092 5093 5094 5095 5096 5097 5098 5100 5101 5103 5104 5105 5106 5107 5109 5110 5112 5114 5116 5119 5122 5124 5126 5129 5131 5133 5136 5138 5141 5143 5145 5147 5150 5152 5154 5157 5159 5162 5165 5168